• In Czech Republic
  • List of Countries
  • For 7 days
  • Water Temperature
  • Satellite Maps
  • Weather Map
  • Weather Widgets
  • user-avatar
    Login

    Hourly Weather Almaty

    Today, 25 June, Monday

    Time Temperature Precipitation Wind Pressure Humidity
    00:00 +19°C° 0.3 mm 2 mps 685 mmHg 71%
    01:00 +18°C° 0.3 mm 3 mps 685 mmHg 69%
    02:00 +18°C° 0.3 mm 3 mps 685 mmHg 67%
    03:00 +18°C° 0.6 mm 2 mps 686 mmHg 66%
    04:00 +18°C° 0.6 mm 2 mps 686 mmHg 65%
    05:00 +18°C° 0.6 mm 2 mps 686 mmHg 64%
    06:00 +20°C° 0.4 mm 2 mps 686 mmHg 61%
    07:00 +21°C° 0.4 mm 2 mps 686 mmHg 59%
    08:00 +23°C° 0.4 mm 2 mps 687 mmHg 56%
    09:00 +24°C° 0.3 mm 2 mps 686 mmHg 55%
    10:00 +25°C° 0.3 mm 2 mps 686 mmHg 53%
    11:00 +25°C° 0.3 mm 2 mps 686 mmHg 52%
    12:00 +25°C° 0.5 mm 2 mps 686 mmHg 53%
    13:00 +26°C° 0.5 mm 1 mps 686 mmHg 54%
    14:00 +26°C° 0.5 mm 1 mps 685 mmHg 55%
    15:00 +25°C° 0.8 mm 1 mps 685 mmHg 57%
    16:00 +24°C° 0.8 mm 2 mps 685 mmHg 60%
    17:00 +24°C° 0.8 mm 2 mps 685 mmHg 63%
    18:00 +21°C° 2.1 mm 3 mps 685 mmHg 71%
    19:00 +19°C° 2.1 mm 3 mps 685 mmHg 78%
    20:00 +17°C° 2.1 mm 4 mps 686 mmHg 86%
    21:00 +17°C° 1.2 mm 4 mps 686 mmHg 84%
    22:00 +17°C° 1.2 mm 3 mps 686 mmHg 81%
    23:00 +17°C° 1.2 mm 3 mps 686 mmHg 79%

    Tomorrow, 26 June, Tuesday

    Time Temperature Precipitation Wind Pressure Humidity
    00:00 +17°C° 0.3 mm 2 mps 686 mmHg 77%
    01:00 +17°C° 0.3 mm 2 mps 686 mmHg 76%
    02:00 +17°C° 0.3 mm 2 mps 686 mmHg 75%
    03:00 +17°C° 0 mm 2 mps 685 mmHg 74%
    04:00 +17°C° 0 mm 2 mps 685 mmHg 74%
    05:00 +16°C° 0 mm 2 mps 685 mmHg 74%
    06:00 +18°C° 0 mm 2 mps 685 mmHg 71%
    07:00 +19°C° 0 mm 2 mps 686 mmHg 69%
    08:00 +21°C° 0 mm 2 mps 686 mmHg 67%
    09:00 +21°C° 0.2 mm 2 mps 686 mmHg 66%
    10:00 +23°C° 0.2 mm 2 mps 686 mmHg 64%
    11:00 +23°C° 0.2 mm 2 mps 686 mmHg 63%
    12:00 +24°C° 0.5 mm 2 mps 686 mmHg 63%
    13:00 +24°C° 0.5 mm 1 mps 686 mmHg 62%
    14:00 +24°C° 0.5 mm 1 mps 687 mmHg 62%
    15:00 +24°C° 0.8 mm 1 mps 687 mmHg 63%
    16:00 +24°C° 0.8 mm 1 mps 687 mmHg 64%
    17:00 +24°C° 0.8 mm 1 mps 688 mmHg 64%
    18:00 +23°C° 0.6 mm 2 mps 688 mmHg 65%
    19:00 +21°C° 0.6 mm 2 mps 688 mmHg 66%
    20:00 +20°C° 0.6 mm 2 mps 688 mmHg 68%
    21:00 +19°C° 0.1 mm 2 mps 688 mmHg 67%
    22:00 +18°C° 0.1 mm 2 mps 688 mmHg 67%
    23:00 +18°C° 0.1 mm 2 mps 687 mmHg 67%

    Day after tomorrow, 27 June, Wednesday

    Time Temperature Precipitation Wind Pressure Humidity
    00:00 +17°C° 0 mm 2 mps 687 mmHg 66%
    01:00 +17°C° 0 mm 3 mps 687 mmHg 65%
    02:00 +16°C° 0 mm 3 mps 686 mmHg 64%
    03:00 +16°C° 0 mm 3 mps 686 mmHg 63%
    04:00 +16°C° 0 mm 3 mps 686 mmHg 63%
    05:00 +16°C° 0 mm 3 mps 686 mmHg 62%
    06:00 +19°C° 0 mm 3 mps 686 mmHg 61%
    07:00 +21°C° 0 mm 3 mps 686 mmHg 60%
    08:00 +23°C° 0 mm 4 mps 686 mmHg 59%
    09:00 +25°C° 0 mm 3 mps 685 mmHg 56%
    10:00 +26°C° 0 mm 3 mps 685 mmHg 52%
    11:00 +27°C° 0 mm 3 mps 685 mmHg 49%
    12:00 +28°C° 0 mm 3 mps 684 mmHg 48%
    13:00 +28°C° 0 mm 3 mps 684 mmHg 48%
    14:00 +29°C° 0 mm 3 mps 684 mmHg 47%
    15:00 +29°C° 0 mm 2 mps 684 mmHg 49%
    16:00 +28°C° 0 mm 2 mps 684 mmHg 50%
    17:00 +28°C° 0 mm 2 mps 684 mmHg 52%
    18:00 +26°C° 0.1 mm 2 mps 684 mmHg 56%
    19:00 +24°C° 0.1 mm 2 mps 684 mmHg 59%
    20:00 +21°C° 0.1 mm 2 mps 684 mmHg 63%
    21:00 +20°C° 0 mm 2 mps 684 mmHg 58%
    22:00 +20°C° 0 mm 2 mps 684 mmHg 54%
    23:00 +20°C° 0 mm 3 mps 684 mmHg 49%

    28 June, Thursday

    Time Temperature Precipitation Wind Pressure Humidity
    00:00 +19°C° 0 mm 2 mps 684 mmHg 49%
    01:00 +19°C° 0 mm 2 mps 684 mmHg 48%
    02:00 +19°C° 0 mm 2 mps 683 mmHg 48%
    03:00 +19°C° 0 mm 2 mps 683 mmHg 49%
    04:00 +19°C° 0 mm 2 mps 683 mmHg 49%
    05:00 +19°C° 0 mm 2 mps 683 mmHg 50%
    06:00 +21°C° 0 mm 2 mps 683 mmHg 51%
    07:00 +23°C° 0 mm 2 mps 684 mmHg 51%
    08:00 +25°C° 0 mm 1 mps 684 mmHg 52%
    09:00 +26°C° 0 mm 1 mps 684 mmHg 51%
    10:00 +27°C° 0 mm 1 mps 684 mmHg 50%
    11:00 +28°C° 0 mm 1 mps 684 mmHg 50%
    12:00 +29°C° 0.5 mm 1 mps 683 mmHg 49%
    13:00 +29°C° 0.5 mm 1 mps 683 mmHg 49%
    14:00 +30°C° 0.5 mm 1 mps 683 mmHg 49%
    15:00 +29°C° 0.9 mm 2 mps 683 mmHg 50%
    16:00 +29°C° 0.9 mm 2 mps 683 mmHg 51%
    17:00 +29°C° 0.9 mm 2 mps 683 mmHg 53%
    18:00 +27°C° 0.3 mm 2 mps 683 mmHg 55%
    19:00 +25°C° 0.3 mm 2 mps 683 mmHg 57%
    20:00 +23°C° 0.3 mm 2 mps 684 mmHg 60%
    21:00 +23°C° 0.1 mm 2 mps 684 mmHg 59%
    22:00 +21°C° 0.1 mm 2 mps 684 mmHg 58%
    23:00 +21°C° 0.1 mm 2 mps 684 mmHg 57%

    29 June, Friday

    Time Temperature Precipitation Wind Pressure Humidity
    00:00 +20°C° 0.1 mm 2 mps 684 mmHg 56%
    01:00 +20°C° 0.1 mm 2 mps 684 mmHg 56%
    02:00 +20°C° 0.1 mm 2 mps 684 mmHg 55%
    03:00 +20°C° 0 mm 2 mps 684 mmHg 54%
    04:00 +20°C° 0 mm 2 mps 684 mmHg 53%
    05:00 +20°C° 0 mm 2 mps 684 mmHg 52%
    06:00 +23°C° 0 mm 2 mps 684 mmHg 50%
    07:00 +25°C° 0 mm 2 mps 684 mmHg 48%
    08:00 +27°C° 0 mm 2 mps 685 mmHg 46%
    09:00 +28°C° 0.1 mm 2 mps 685 mmHg 44%
    10:00 +29°C° 0.1 mm 2 mps 684 mmHg 43%
    11:00 +30°C° 0.1 mm 2 mps 684 mmHg 42%
    12:00 +31°C° 0.6 mm 2 mps 684 mmHg 43%
    13:00 +31°C° 0.6 mm 3 mps 684 mmHg 43%
    14:00 +31°C° 0.6 mm 3 mps 684 mmHg 44%
    15:00 +30°C° 0.9 mm 3 mps 684 mmHg 47%
    16:00 +30°C° 0.9 mm 3 mps 684 mmHg 49%
    17:00 +29°C° 0.9 mm 3 mps 684 mmHg 52%
    18:00 +27°C° 1.1 mm 2 mps 685 mmHg 56%
    19:00 +25°C° 1.1 mm 2 mps 685 mmHg 61%
    20:00 +24°C° 1.1 mm 2 mps 685 mmHg 66%
    21:00 +23°C° 0.7 mm 2 mps 685 mmHg 65%
    22:00 +23°C° 0.7 mm 2 mps 685 mmHg 65%
    23:00 +22°C° 0.7 mm 3 mps 685 mmHg 64%

    30 June, Saturday

    Time Temperature Precipitation Wind Pressure Humidity
    00:00 +21°C° 0.3 mm 2 mps 685 mmHg 65%
    01:00 +21°C° 0.3 mm 2 mps 685 mmHg 66%
    02:00 +20°C° 0.3 mm 2 mps 685 mmHg 67%
    03:00 +20°C° 0 mm 2 mps 685 mmHg 67%
    04:00 +20°C° 0 mm 2 mps 685 mmHg 68%
    05:00 +19°C° 0 mm 2 mps 685 mmHg 68%
    06:00 +22°C° 0 mm 1 mps 685 mmHg 65%
    07:00 +24°C° 0 mm 1 mps 686 mmHg 62%
    08:00 +26°C° 0 mm 1 mps 686 mmHg 58%
    09:00 +27°C° 0.3 mm 1 mps 686 mmHg 57%
    10:00 +27°C° 0.3 mm 1 mps 686 mmHg 56%
    11:00 +28°C° 0.3 mm 1 mps 685 mmHg 55%
    12:00 +28°C° 0.7 mm 1 mps 685 mmHg 54%
    13:00 +29°C° 0.7 mm 2 mps 685 mmHg 54%
    14:00 +29°C° 0.7 mm 2 mps 685 mmHg 53%
    15:00 +28°C° 0.8 mm 2 mps 685 mmHg 55%
    16:00 +28°C° 0.8 mm 2 mps 685 mmHg 56%
    17:00 +27°C° 0.8 mm 3 mps 685 mmHg 58%
    18:00 +26°C° 1.2 mm 3 mps 685 mmHg 60%
    19:00 +24°C° 1.2 mm 3 mps 685 mmHg 63%
    20:00 +22°C° 1.2 mm 3 mps 685 mmHg 65%
    21:00 +22°C° 1.3 mm 3 mps 685 mmHg 65%
    22:00 +22°C° 1.3 mm 3 mps 685 mmHg 64%
    23:00 +22°C° 1.3 mm 3 mps 685 mmHg 64%
    Show more